[[{"header":{"parameterUnit":"m.s-1","parameterCategory":1,"la1":30.2991,"la2":30.254,"lo1":-89.0895,"lo2":-89.0444,"dx":0.0017,"dy":0.0017,"nx":28,"ny":28,"refTime":"2023-01-13T09:00:00:Z","depth":0,"parameterNumber":2,"parameterNumberName":"U-component_of_WINDS"},"data":[0,0,0,0,0,0,0,0,0,0,0,0,0,0,0,0,0,0,0,0,0,0,0,0,0,0,0,0,0,0,0,0,0,0,0,0,0,0,0,0,0,0,0,0,0,0,0,0,0,0,0,0,0,0,0,0,0,0,3.239,3.239,0,3.242,3.242,3.242,3.2398,3.2397,3.2396,3.2395,3.2424,3.2426,3.2428,0,0,0,0,0,0,0,0,0,0,0,0,0,3.2314,3.2316,3.239,3.239,3.2391,3.242,3.242,3.242,3.2398,3.2397,3.2395,3.2394,3.2424,3.2426,3.2428,0,0,0,0,0,0,0,0,0,0,0,0,0,3.2346,3.2316,3.239,3.2383,3.2382,3.2419,3.242,3.242,3.2398,3.2396,3.2395,3.2394,3.2423,3.2426,3.2428,3.2473,0,0,3.2436,3.2437,0,0,0,0,0,0,0,0,3.2344,3.2349,3.2383,3.2383,3.2383,3.2403,3.2404,3.2438,3.2398,3.2392,3.2395,3.2393,3.2419,3.2421,3.243,3.2475,3.2476,3.2436,3.2438,3.2439,3.244,0,0,0,0,0,0,0,3.2342,3.2347,3.2402,3.2384,3.2384,3.2379,3.2381,3.2411,3.2413,3.2393,3.2391,3.2395,3.2418,3.2428,3.2431,3.2476,3.2436,3.2438,3.244,3.2441,3.2562,3.2563,0,0,0,0,0,0,3.2341,3.2346,3.2401,3.2402,3.236,3.2381,3.2384,3.2398,3.2413,3.2414,3.2396,3.2394,3.2424,3.2428,3.2432,3.2487,3.2439,3.2441,3.2443,3.256,3.2562,3.2564,0,0,0,0,0,0,3.2339,3.2346,3.2399,3.2374,3.238,3.2384,3.24,3.24,3.2409,3.2415,3.2416,3.2405,3.2423,3.2428,3.2464,3.2487,3.2442,3.2445,3.2558,3.2561,3.2563,3.2596,0,0,0,0,0,0,3.2337,3.2345,3.2362,3.2374,3.2382,3.2431,3.2401,3.2401,3.2414,3.2411,3.2424,3.2425,3.2422,3.246,3.2466,3.249,3.2447,3.2556,3.2559,3.2562,3.2593,3.2599,3.2605,0,0,0,0,0,3.2334,3.2369,3.2363,3.237,3.2403,3.2432,3.2436,3.2433,3.2416,3.2433,3.2437,3.2425,3.2484,3.2464,3.2471,3.2495,3.2554,3.2558,3.2562,3.259,3.2598,3.2605,0,0,0,0,0,0,3.2359,3.2371,3.2364,3.2404,3.2417,3.2428,3.2449,3.2441,3.2459,3.2455,3.245,3.2453,3.2491,3.2497,3.2474,3.2541,3.2517,3.2522,3.2536,3.2543,3.2549,3.2547,3.2449,0,0,0,0,0,3.2369,3.2392,3.2401,3.2436,3.2443,3.2445,3.2458,3.2454,3.2468,3.2473,3.248,3.2494,3.2515,3.253,3.255,3.2594,3.2597,3.2615,3.2621,3.2626,3.263,3.2656,3.2664,3.2576,3.2576,3.2576,0,0,3.239,3.24,3.2414,3.2441,3.2451,3.2475,3.245,3.2476,3.2494,3.2477,3.2511,3.2517,3.2532,3.2573,3.2591,3.2579,3.2655,3.2631,3.2635,3.2636,3.266,3.2669,3.2676,3.2579,3.2578,3.2578,0,0,3.2441,3.245,3.2481,3.2492,3.2508,3.2509,3.2517,3.253,3.2533,3.2568,3.2556,3.2578,3.2615,3.2626,3.2637,3.2696,3.2685,3.2703,3.2734,3.2759,3.2765,3.2771,3.2793,3.2801,3.2707,3.2707,3.2707,0,3.2465,3.2501,3.2497,3.2525,3.2538,3.2525,3.2556,3.2567,3.2588,3.2598,3.2584,3.2632,3.2641,3.2685,3.27,3.2708,3.2717,3.27,3.2765,3.2771,3.2776,3.2797,3.2805,3.2709,3.2709,3.2709,3.2709,0,3.253,3.2555,3.2578,3.26,3.2616,3.2645,3.2647,3.2663,3.2659,3.2662,3.2699,3.271,3.2733,3.2743,3.2739,3.2787,3.2779,3.2765,3.274,3.2787,3.2806,3.2814,3.2712,3.2711,3.2711,3.271,0,0,3.2595,3.2617,3.2625,3.2636,3.2654,3.2673,3.2703,3.2726,3.2741,3.2757,3.2782,3.2815,3.2803,3.2816,3.2813,3.2835,3.2882,3.2818,3.2819,3.283,3.2937,3.2947,3.2956,3.2875,3.2877,3.2878,3.2936,0,3.2647,3.2698,3.2698,3.2746,3.277,3.2759,3.2785,3.2799,3.2804,3.2825,3.283,3.2854,3.2836,3.2844,3.2865,3.2871,3.2903,3.2867,3.2899,3.29,3.2895,3.2966,3.2976,3.303,3.2943,3.2944,3.2945,0,3.2714,3.2733,3.2784,3.28,3.281,3.2834,3.2856,3.2876,3.2893,3.2895,3.291,3.2905,3.2936,3.2911,3.2954,3.293,3.2943,3.2949,3.2951,3.2953,3.2925,3.297,3.3047,3.3055,3.2957,3.2956,3.2955,0,3.2757,3.2796,3.2832,3.2841,3.2861,3.2878,3.2886,3.2902,3.2916,3.2936,3.2946,3.2969,3.2981,3.3,3.3001,3.2983,3.3045,3.302,3.3048,3.3048,3.3061,3.306,3.3141,3.307,3.307,3.307,3.3069,0,3.2815,3.2846,3.2852,3.2873,3.2909,3.2908,3.2944,3.2951,3.2965,3.2989,3.2981,3.3004,3.3004,3.3028,3.3029,3.3065,3.3071,3.3074,3.3074,3.3074,3.3074,3.3082,3.3078,3.3072,3.3071,3.3071,3.307,0,3.2868,3.2873,3.2911,3.2928,3.2932,3.2958,3.2972,3.2993,3.2998,3.3029,3.3036,3.3044,3.3071,3.3074,3.3106,3.3107,3.3151,3.3147,3.3145,3.3145,3.3173,3.317,3.3261,3.3274,3.3195,3.3196,3.3196,0,3.2905,3.2929,3.2948,3.2964,3.2974,3.2999,3.3015,3.3016,3.3032,3.3055,3.3074,3.31,3.3122,3.3166,3.3175,3.3199,3.3196,3.3226,3.3199,3.32,3.3197,3.3195,3.3198,3.3231,3.3232,3.3233,3.3233,0,3.2969,3.2971,3.2994,3.3018,3.3037,3.3056,3.3074,3.3087,3.3091,3.311,3.3138,3.3155,3.3189,3.3215,3.324,3.325,3.3243,3.3242,3.325,3.3251,3.3249,3.3251,3.316,3.324,3.3239,3.3239,3.3238,3.3238,3.3015,3.3037,3.3055,3.3081,3.3095,3.3112,3.3134,3.3142,3.3166,3.3193,3.3193,3.3224,3.3242,3.3275,3.3287,3.3312,3.3302,3.3313,3.3316,3.3318,3.3321,3.3246,3.3316,3.3316,3.3316,3.3316,3.3316,0,3.308,3.3091,3.3115,3.3141,3.3163,3.3155,3.3175,3.3193,3.3221,3.3238,3.326,3.3294,3.332,3.3332,3.3359,3.3377,3.3374,3.3383,3.3382,3.3385,3.3328,3.3319,3.3385,3.3385,3.3385,3.3385,3.3385,3.3385,3.3116,3.3153,3.3157,3.3201,3.3212,3.3243,3.3256,3.3272,3.3286,3.3324,3.3346,3.3354,3.337,3.3398,3.3423,3.3425,3.3436,3.3447,3.3448,3.3395,3.3388,3.3381,3.3373,3.3449,3.3449,3.3502,3.3503,3.3503]},{"header":{"parameterUnit":"m.s-1","parameterCategory":1,"la1":30.2991,"la2":30.254,"lo1":-89.0895,"lo2":-89.0444,"dx":0.0017,"dy":0.0017,"nx":28,"ny":28,"refTime":"2023-01-13T09:00:00:Z","depth":0,"parameterNumber":3,"parameterNumberName":"V-component_of_WINDS"},"data":[0,0,0,0,0,0,0,0,0,0,0,0,0,0,0,0,0,0,0,0,0,0,0,0,0,0,0,0,0,0,0,0,0,0,0,0,0,0,0,0,0,0,0,0,0,0,0,0,0,0,0,0,0,0,0,0,0,0,-6.9078,-6.9079,0,-6.9212,-6.9214,-6.9215,-6.9199,-6.9196,-6.9194,-6.9192,-6.9325,-6.933,-6.9336,0,0,0,0,0,0,0,0,0,0,0,0,0,-6.8803,-6.8808,-6.9077,-6.9079,-6.9081,-6.9212,-6.9214,-6.9216,-6.9199,-6.9196,-6.9194,-6.9191,-6.9323,-6.9329,-6.9336,0,0,0,0,0,0,0,0,0,0,0,0,0,-6.8928,-6.881,-6.9077,-6.9088,-6.9091,-6.9212,-6.9214,-6.9216,-6.9199,-6.9196,-6.9193,-6.919,-6.9321,-6.9329,-6.9337,-6.9453,0,0,-6.9362,-6.9366,0,0,0,0,0,0,0,0,-6.8921,-6.8938,-6.9085,-6.9088,-6.9091,-6.9185,-6.9166,-6.9295,-6.92,-6.9158,-6.9192,-6.9188,-6.9281,-6.9292,-6.9324,-6.946,-6.9465,-6.9363,-6.9368,-6.9372,-6.9374,0,0,0,0,0,0,0,-6.8912,-6.8932,-6.9131,-6.9087,-6.9091,-6.9086,-6.91,-6.919,-6.9236,-6.9161,-6.9161,-6.9177,-6.9281,-6.9316,-6.9327,-6.9467,-6.9363,-6.937,-6.9375,-6.9379,-6.9707,-6.9711,0,0,0,0,0,0,-6.8901,-6.8925,-6.9126,-6.9135,-6.8996,-6.9093,-6.9109,-6.9158,-6.9235,-6.9243,-6.918,-6.9176,-6.9304,-6.9318,-6.9332,-6.9475,-6.9372,-6.938,-6.9384,-6.9704,-6.9708,-6.9712,0,0,0,0,0,0,-6.8896,-6.892,-6.9121,-6.903,-6.9055,-6.9102,-6.9157,-6.9163,-6.9197,-6.9249,-6.9256,-6.9207,-6.9302,-6.932,-6.9424,-6.9479,-6.9383,-6.9391,-6.9699,-6.9705,-6.971,-6.9761,0,0,0,0,0,0,-6.8888,-6.8918,-6.8963,-6.9031,-6.906,-6.9212,-6.916,-6.9168,-6.9212,-6.9209,-6.9276,-6.9284,-6.93,-6.9412,-6.9433,-6.9489,-6.9397,-6.9695,-6.9702,-6.9709,-6.9755,-6.9768,-6.9779,0,0,0,0,0,-6.8878,-6.897,-6.8965,-6.899,-6.9118,-6.9215,-6.9232,-6.925,-6.9217,-6.9263,-6.9296,-6.9282,-6.947,-6.9423,-6.9446,-6.9505,-6.9691,-6.97,-6.9708,-6.9749,-6.9765,-6.9778,0,0,0,0,0,0,-6.8904,-6.8979,-6.8974,-6.9091,-6.9148,-6.9212,-6.927,-6.9266,-6.9331,-6.9324,-6.9343,-6.9358,-6.9464,-6.9495,-6.9441,-6.9623,-6.9576,-6.9589,-6.9599,-6.9615,-6.9627,-6.9617,-6.9404,0,0,0,0,0,-6.8924,-6.8999,-6.9059,-6.9156,-6.9185,-6.9223,-6.9266,-6.9276,-6.9334,-6.9357,-6.9397,-6.9453,-6.9525,-6.9571,-6.964,-6.9759,-6.9774,-6.9812,-6.9824,-6.9833,-6.9845,-6.9912,-6.993,-6.974,-6.974,-6.974,0,0,-6.8965,-6.9015,-6.906,-6.9163,-6.9208,-6.9284,-6.9243,-6.9324,-6.9381,-6.9368,-6.947,-6.9503,-6.9566,-6.9679,-6.973,-6.9708,-6.9901,-6.9844,-6.9852,-6.9858,-6.9922,-6.994,-6.9956,-6.9746,-6.9745,-6.9744,0,0,-6.9078,-6.9124,-6.9211,-6.9257,-6.9326,-6.9352,-6.9373,-6.9439,-6.9461,-6.9564,-6.9557,-6.9624,-6.9747,-6.9793,-6.9832,-6.9967,-6.9957,-6.9988,-7.0051,-7.0117,-7.0132,-7.0145,-7.0194,-7.0211,-7.0,-7.0,-7.0,0,-6.912,-6.9235,-6.9255,-6.9339,-6.9385,-6.9381,-6.9469,-6.9512,-6.9599,-6.9631,-6.9605,-6.9761,-6.9803,-6.9928,-6.9961,-6.9993,-7.0017,-6.9981,-7.0128,-7.0142,-7.0154,-7.0202,-7.022,-7.0003,-7.0003,-7.0002,-7.0002,0,-6.9284,-6.9364,-6.9426,-6.9514,-6.9566,-6.9652,-6.9684,-6.9735,-6.9741,-6.9769,-6.9875,-6.9926,-7.0006,-7.0036,-7.0041,-7.0162,-7.0146,-7.0124,-7.0077,-7.0176,-7.022,-7.0238,-7.0008,-7.0007,-7.0006,-7.0005,0,0,-6.9415,-6.9516,-6.9538,-6.9579,-6.9656,-6.9718,-6.9804,-6.9885,-6.9928,-6.9989,-7.0061,-7.0167,-7.0148,-7.0193,-7.0204,-7.0261,-7.0366,-7.0232,-7.0234,-7.0256,-7.0504,-7.0521,-7.0541,-7.0361,-7.0364,-7.0367,-7.0499,0,-6.9537,-6.9691,-6.9713,-6.9848,-6.9923,-6.9921,-6.9996,-7.0051,-7.008,-7.0148,-7.0178,-7.0254,-7.0223,-7.025,-7.0307,-7.0342,-7.0416,-7.0332,-7.0428,-7.0431,-7.0413,-7.0565,-7.0582,-7.0704,-7.0517,-7.052,-7.0522,0,-6.9699,-6.9768,-6.9912,-6.9982,-7.0014,-7.0081,-7.0158,-7.0222,-7.0285,-7.0302,-7.0354,-7.0359,-7.0447,-7.0397,-7.0519,-7.0461,-7.0502,-7.0525,-7.053,-7.054,-7.0482,-7.0579,-7.0744,-7.0762,-7.0549,-7.0547,-7.0545,0,-6.9783,-6.9911,-7.0014,-7.0049,-7.0132,-7.018,-7.0216,-7.0276,-7.0324,-7.0391,-7.0422,-7.0498,-7.0539,-7.0597,-7.0622,-7.0583,-7.0743,-7.0694,-7.076,-7.0759,-7.0793,-7.0791,-7.0967,-7.0819,-7.0818,-7.0818,-7.0818,0,-6.9917,-7.0005,-7.0053,-7.0116,-7.0215,-7.024,-7.0337,-7.0372,-7.0426,-7.0495,-7.0497,-7.0563,-7.0591,-7.0661,-7.068,-7.0779,-7.0797,-7.0814,-7.0818,-7.0814,-7.0812,-7.084,-7.0833,-7.0823,-7.0822,-7.0821,-7.082,0,-7.0026,-7.0062,-7.0174,-7.0246,-7.0266,-7.0336,-7.0396,-7.0457,-7.0487,-7.0575,-7.0597,-7.0643,-7.0725,-7.0756,-7.0855,-7.0868,-7.0984,-7.098,-7.0963,-7.0964,-7.1029,-7.1023,-7.123,-7.1259,-7.1091,-7.1092,-7.1093,0,-7.0109,-7.0178,-7.0257,-7.0306,-7.0345,-7.0422,-7.0472,-7.0499,-7.0551,-7.0629,-7.0681,-7.0764,-7.0832,-7.0963,-7.1004,-7.1081,-7.108,-7.1148,-7.1091,-7.1086,-7.1082,-7.1078,-7.1086,-7.1158,-7.1159,-7.1161,-7.1162,0,-7.0254,-7.0269,-7.0342,-7.0422,-7.0483,-7.0546,-7.0608,-7.0647,-7.0683,-7.0741,-7.0827,-7.088,-7.0984,-7.1066,-7.1145,-7.1181,-7.1178,-7.118,-7.1199,-7.1196,-7.1184,-7.1192,-7.0993,-7.1175,-7.1173,-7.1172,-7.1172,-7.1171,-7.0353,-7.0415,-7.0482,-7.0563,-7.0614,-7.0672,-7.0734,-7.0773,-7.0846,-7.0934,-7.0945,-7.1037,-7.11,-7.1207,-7.1247,-7.1319,-7.1301,-7.1328,-7.1335,-7.1342,-7.1347,-7.1172,-7.1333,-7.1333,-7.1333,-7.1332,-7.1332,0,-7.0499,-7.0542,-7.0618,-7.0706,-7.0771,-7.0764,-7.0833,-7.0887,-7.0969,-7.1029,-7.1097,-7.1196,-7.1277,-7.1326,-7.1407,-7.1455,-7.1456,-7.1475,-7.1472,-7.1481,-7.1359,-7.1334,-7.1474,-7.1474,-7.1474,-7.1474,-7.1474,-7.1474,-7.0582,-7.0687,-7.071,-7.084,-7.0883,-7.0975,-7.1015,-7.1069,-7.1118,-7.123,-7.1298,-7.133,-7.1386,-7.1471,-7.1545,-7.1557,-7.1587,-7.1608,-7.1619,-7.1504,-7.1489,-7.1475,-7.1453,-7.1615,-7.1615,-7.1736,-7.1737,-7.1738]}]]